Regional Weather Roundup
Issued by NWS

Home | Current Version | Previous Version | Text Only | Print | Product List | Glossary Off
Versions: 1 2 3 4 5 6 7 8 9 10 11 12 13 14 15 16 17 18 19 20 21 22 23 24 25 26 27 28 29 30 31 32 33 34 35 36 37 38 39 40 41 42 43 44 45 46 47 48 49 50

981
ASUS44 KLIX 311811
RWRLA
LOUISIANA WEATHER ROUNDUP
NATIONAL WEATHER SERVICE NEW ORLEANS LA
100 PM CDT TUE MAR 31 2015

NOTE: "FAIR" INDICATES FEW OR NO CLOUDS BELOW 12,000 FEET WITH NO
      SIGNIFICANT WEATHER AND/OR OBSTRUCTIONS TO VISIBILITY.
      SKY/WX - SKY CONDITION AND SIGNIFICANT WEATHER.
      TMP - AIR TEMPERATURE.    DP   - DEWPOINT TEMPERATURE.
      RH  - RELATIVE HUMIDITY.  PRES - PRESSURE.
      HX  - HEAT INDEX.         WCI  - WIND CHILL INDEX.

*  THESE STATIONS ARE NOT NWS OR FAA STATIONS AND ARE NOT UNDER
   NWS QUALITY CONTROL.

LAZ040-048-061>063-065-066-069-311900-
SOUTHEAST LOUISIANA

CITY           SKY/WX    TMP DP  RH WIND       PRES   REMARKS
N.O. AUDUBON   NOT AVBL
N.O. INTL ARPT PTSUNNY   79  61  53 SW15      30.11F
6HR MIN TEMP:  61; 6HR MAX TEMP:  80;

N.O. LAKEFRONT CLOUDY    78  64  61 SW5       30.12F
6HR MIN TEMP:  65; 6HR MAX TEMP:  79;

SLIDELL        PTSUNNY   78  64  61 W10G20    30.11F
6HR MIN TEMP:  56; 6HR MAX TEMP:  79;

BATON ROUGE    PTSUNNY   79  60  52 SW12      30.10F
6HR MIN TEMP:  59; 6HR MAX TEMP:  80;

BOOTHVILLE     MOSUNNY   76  66  71 SW10      30.14F
6HR MIN TEMP:  69; 6HR MAX TEMP:  77;

BELLE CHASSE   PTSUNNY   78  63  59 SW13      30.11F
6HR MIN TEMP:  59; 6HR MAX TEMP:  78;

BOGALUSA*        N/A     81  59  47 SW13G18   30.11F
6HR MIN TEMP:  56; 6HR MAX TEMP:  82;

GALLIANO*      PTCLDY    81  64  55 MISG      30.14F
6HR MIN TEMP:  53; 6HR MAX TEMP:  81;

NEW ROADS*     MOCLDY    77  60  56 SW13      30.10F
6HR MIN TEMP:  61; 6HR MAX TEMP:  79;

GONZALES*      FAIR      80  61  51 SW13G22   30.11F
6HR MIN TEMP:  58; 6HR MAX TEMP:  80;

HAMMOND*       MOSUNNY   81  57  44 SW10G17   30.12F
HOUMA*         MOSUNNY   81  64  57 SW10      30.12F
PORT FOURCHON*   N/A     77  64  65 SW10G16   30.17F

$$

LAZ041-044-053-054-311900-
SOUTHWEST LOUISIANA

CITY           SKY/WX    TMP DP  RH WIND       PRES   REMARKS
LAKE CHARLES   PTSUNNY   78  60  53 SW12G20   30.10F
6HR MIN TEMP:  57; 6HR MAX TEMP:  79;

LAFAYETTE      PTSUNNY   77  62  59 W13G20    30.11F
6HR MIN TEMP:  60; 6HR MAX TEMP:  80;

PATTERSON      PTSUNNY   79  64  61 SW14      30.14F
6HR MIN TEMP:  57; 6HR MAX TEMP:  79;

SALT POINT       N/A     75  68  78 SW6       30.12F
6HR MIN TEMP:  62; 6HR MAX TEMP:  76;

NEW IBERIA     PTSUNNY   81  62  52 SW13      30.12F
6HR MIN TEMP:  58; 6HR MAX TEMP:  81;

CHENAULT AIRPK NOT AVBL

$$

LAZ027-028-311900-
CENTRAL LOUISIANA

CITY           SKY/WX    TMP DP  RH WIND       PRES   REMARKS
FORT POLK      MOSUNNY   77  61  57 S13       30.08F
6HR MIN TEMP:  64; 6HR MAX TEMP:  76;

ALEXANDRIA INT MOSUNNY   78  60  53 SW16      30.06F
6HR MIN TEMP:  65; 6HR MAX TEMP:  78;

ALEXANDRIA     MOSUNNY   78  58  49 SW15G23   30.08F
6HR MIN TEMP:  63; 6HR MAX TEMP:  79;


$$

LAZ001-002-311900-
NORTHWEST LOUISIANA

CITY           SKY/WX    TMP DP  RH WIND       PRES   REMARKS
SHREVEPORT     CLOUDY    72  62  71 SW14      30.04F
6HR MIN TEMP:  63; 6HR MAX TEMP:  73;

BARKSDALE AFB  CLOUDY    72  62  68 SW10      30.04F
6HR MIN TEMP:  63; 6HR MAX TEMP:  73;

DTN SHREVEPORT CLOUDY    71  61  70 SW13      30.04F
6HR MIN TEMP:  63; 6HR MAX TEMP:  71;


$$

LAZ014-016-311900-
NORTHEAST LOUISIANA

CITY           SKY/WX    TMP DP  RH WIND       PRES   REMARKS
MONROE         MOSUNNY   79  60  52 SW16      30.05F
6HR MIN TEMP:  61; 6HR MAX TEMP:  79;

TALLULAH       PTSUNNY   76  62  62 S14       30.06F
6HR MIN TEMP:  59; 6HR MAX TEMP:  77;


$$




USA.gov is the U.S. government's official web portal to all federal, state and local government web resources and services.